Weather History for Bemidji, MN

Change the Weather History Date:

Friday, September 14, 2012

  Actual Average Record
Temperature  
Mean Temperature 48 °F -  
Max Temperature 67 °F 64 °F 82 °F (1969)
Min Temperature 29 °F 43 °F 28 °F (1996)
Degree Days  
Heating Degree Days 17    
Moisture  
Dew Point 33 °F    
Average Humidity 58    
Maximum Humidity 92    
Minimum Humidity 25    
Precipitation  
Precipitation 0.00 in - - ()
Sea Level Pressure  
Sea Level Pressure 30.32 in    
Wind  
Wind Speed 1 mph (NE)    
Max Wind Speed 8 mph    
Max Gust Speed -    
Visibility 9 miles    
Events      
Averages and records for this station are not official NWS values.
T = Trace of Precipitation, MM = Missing Value Source: NWS Daily Summary

Daily Weather History Graph

Daily Weather History Graph

Search for Another Location

Airport:

Trip Planner

Search our weather history database for the weather conditions in past years. The results will help you decide how hot, cold, wet, or windy it might be!

Date:

Astronomy

Sep. 14, 2012 Rise Set
Actual Time 6:56 AM CDT 7:32 PM CDT
Civil Twilight 6:25 AM CDT 8:03 PM CDT
Nautical Twilight 5:48 AM CDT 8:40 PM CDT
Astronomical Twilight 5:10 AM CDT 9:18 PM CDT
Moon 5:18 AM CDT (9/14) 6:30 PM CDT (9/14)
Length of Visible Light 13h 38m
Length of Day
12h 36m
Waning Crescent, 2% of the Moon is Illuminated
Sep 14
Waning Crescent
Sep 15
New
Sep 22
First Quarter
Sep 29
Full
Oct 8
Last Quarter

Hourly Weather History & Observations

Time (CDT) Temp. Windchill Dew Point Humidity Pressure Visibility Wind Dir Wind Speed Gust Speed Precip Events Conditions
12:15 AM 42.6 °F - 33.6 °F 70% 30.33 in 10.0 mi Calm Calm - N/A   Clear
12:35 AM 42.6 °F - 33.6 °F 70% 30.33 in 10.0 mi Calm Calm - N/A   Clear
12:55 AM 38.7 °F - 32.7 °F 79% 30.33 in 10.0 mi Calm Calm - N/A   Clear
1:15 AM 38.8 °F - 32.9 °F 79% 30.33 in 10.0 mi Calm Calm - N/A   Clear
1:35 AM 37.8 °F - 33.1 °F 83% 30.33 in 10.0 mi Calm Calm - N/A   Clear
1:55 AM 36.3 °F - 32.5 °F 86% 30.32 in 10.0 mi Calm Calm - N/A   Clear
2:15 AM 36.1 °F - 33.1 °F 89% 30.32 in 10.0 mi Calm Calm - N/A   Clear
2:35 AM 35.4 °F - 32.2 °F 88% 30.32 in 10.0 mi Calm Calm - N/A   Clear
2:55 AM 33.8 °F - 30.7 °F 89% 30.32 in 10.0 mi Calm Calm - N/A   Clear
3:15 AM 33.1 °F - 30.2 °F 89% 30.32 in 10.0 mi Calm Calm - N/A   Clear
3:35 AM 33.1 °F 30.0 °F 30.7 °F 91% 30.32 in 10.0 mi WSW 3.5 mph - N/A   Clear
3:55 AM 32.7 °F - 30.0 °F 90% 30.33 in 10.0 mi Calm Calm - N/A   Clear
4:15 AM 32.4 °F - 30.4 °F 92% 30.32 in 10.0 mi Calm Calm - N/A   Clear
4:35 AM 31.1 °F - 28.9 °F 92% 30.32 in 10.0 mi Calm Calm - N/A   Clear
4:55 AM 31.6 °F - 29.7 °F 92% 30.33 in 10.0 mi Calm Calm - N/A   Clear
5:15 AM 31.5 °F - 27.7 °F 86% 30.33 in 10.0 mi Calm Calm - N/A   Clear
5:35 AM 30.4 °F - 28.0 °F 91% 30.34 in 10.0 mi Calm Calm - N/A   Clear
5:55 AM 31.1 °F - 28.4 °F 90% 30.34 in 10.0 mi Calm Calm - N/A   Clear
6:15 AM 31.5 °F - 28.2 °F 88% 30.34 in 10.0 mi Calm Calm - N/A   Clear
6:35 AM 30.0 °F - 27.0 °F 88% 30.35 in 10.0 mi Calm Calm - N/A   Clear
6:55 AM 29.1 °F - 26.6 °F 90% 30.35 in 10.0 mi Calm Calm - N/A   Clear
7:15 AM 30.7 °F - 28.6 °F 92% 30.35 in 7.0 mi Calm Calm - N/A   Clear
7:35 AM 31.5 °F - 28.8 °F 90% 30.36 in 10.0 mi Calm Calm - N/A   Clear
7:55 AM 32.5 °F - 29.7 °F 89% 30.36 in 7.0 mi Calm Calm - N/A   Clear
8:15 AM 36.5 °F - 33.3 °F 88% 30.36 in 10.0 mi Calm Calm - N/A   Clear
8:35 AM 40.8 °F - 36.1 °F 83% 30.36 in 10.0 mi Calm Calm - N/A   Clear
8:55 AM 44.6 °F - 37.8 °F 77% 30.36 in 10.0 mi Calm Calm - N/A   Clear
9:15 AM 48.4 °F - 39.0 °F 70% 30.36 in 10.0 mi Calm Calm - N/A   Clear
9:35 AM 51.4 °F - 39.0 °F 63% 30.36 in 7.0 mi Calm Calm - N/A   Clear
9:55 AM 54.0 °F - 37.0 °F 53% 30.37 in 7.0 mi Calm Calm - N/A   Clear
10:15 AM 55.9 °F - 35.6 °F 46% 30.37 in 10.0 mi Calm Calm - N/A   Clear
10:35 AM 57.6 °F - 34.9 °F 43% 30.37 in 7.0 mi Calm Calm - N/A   Clear
10:55 AM 58.3 °F - 34.7 °F 41% 30.37 in 7.0 mi Calm Calm - N/A   Clear
11:15 AM 58.8 °F - 33.6 °F 39% 30.36 in 7.0 mi South 4.6 mph - N/A   Clear
11:35 AM 59.2 °F - 33.6 °F 38% 30.36 in 7.0 mi Calm Calm - N/A   Clear
11:55 AM 60.3 °F - 33.6 °F 37% 30.36 in 7.0 mi Calm Calm - N/A   Clear
12:15 PM 61.3 °F - 33.1 °F 35% 30.35 in 7.0 mi Calm Calm - N/A   Clear
12:35 PM 62.1 °F - 33.1 °F 34% 30.35 in 10.0 mi East 3.5 mph - N/A   Clear
12:55 PM 63.7 °F - 32.9 °F 32% 30.34 in 10.0 mi NNE 6.9 mph - N/A   Clear
1:15 PM 64.8 °F - 31.8 °F 29% 30.34 in 7.0 mi North 8.1 mph - N/A   Clear
1:35 PM 64.9 °F - 32.0 °F 29% 30.33 in 10.0 mi NNW 5.8 mph - N/A   Clear
1:55 PM 65.5 °F - 31.6 °F 28% 30.33 in 5.0 mi North 4.6 mph - N/A   Haze
2:15 PM 66.0 °F - 32.0 °F 28% 30.32 in 10.0 mi NE 8.1 mph - N/A   Clear
2:35 PM 66.4 °F - 31.3 °F 27% 30.32 in 10.0 mi North 5.8 mph - N/A   Clear
2:55 PM 67.1 °F - 31.6 °F 27% 30.31 in 7.0 mi NNW 5.8 mph - N/A   Clear
3:15 PM 66.9 °F - 32.0 °F 27% 30.30 in 7.0 mi NNW 6.9 mph - N/A   Clear
3:35 PM 66.9 °F - 31.8 °F 27% 30.29 in 7.0 mi NE 3.5 mph - N/A   Clear
3:55 PM 67.1 °F - 31.1 °F 26% 30.29 in 10.0 mi Calm Calm - N/A   Clear
4:15 PM 67.1 °F - 30.7 °F 26% 30.29 in 10.0 mi NE 6.9 mph - N/A   Clear
4:35 PM 67.3 °F - 30.6 °F 25% 30.29 in 10.0 mi North 6.9 mph - N/A   Clear
4:55 PM 66.9 °F - 30.7 °F 26% 30.29 in 7.0 mi NNE 6.9 mph - N/A   Clear
5:15 PM 66.9 °F - 31.3 °F 27% 30.28 in 10.0 mi NNE 5.8 mph - N/A   Clear
5:35 PM 66.4 °F - 31.5 °F 27% 30.28 in 10.0 mi ENE 5.8 mph - N/A   Clear
5:55 PM 66.2 °F - 31.6 °F 28% 30.27 in 7.0 mi NNE 3.5 mph - N/A   Clear
6:15 PM 65.8 °F - 31.8 °F 28% 30.27 in 10.0 mi East 5.8 mph - N/A   Clear
6:35 PM 64.9 °F - 32.2 °F 29% 30.27 in 10.0 mi ENE 6.9 mph - N/A   Clear
6:55 PM 63.3 °F - 33.3 °F 33% 30.27 in 10.0 mi ENE 3.5 mph - N/A   Clear
7:15 PM 61.2 °F - 34.3 °F 37% 30.27 in 10.0 mi ENE 4.6 mph - N/A   Clear
7:35 PM 57.9 °F - 35.2 °F 43% 30.27 in 7.0 mi East 4.6 mph - N/A   Clear
7:55 PM 57.9 °F - 35.1 °F 42% 30.27 in 10.0 mi Calm Calm - N/A   Clear
8:15 PM 54.0 °F - 34.3 °F 47% 30.27 in 7.0 mi Calm Calm - N/A   Clear
8:35 PM 51.8 °F - 34.9 °F 53% 30.27 in 7.0 mi Calm Calm - N/A   Clear
8:55 PM 51.3 °F - 35.4 °F 55% 30.27 in 7.0 mi SE 3.5 mph - N/A   Clear
9:15 PM 49.8 °F - 35.6 °F 58% 30.26 in 10.0 mi Calm Calm - N/A   Clear
9:35 PM 48.6 °F - 35.8 °F 61% 30.26 in 10.0 mi SSE 4.6 mph - N/A   Clear
9:55 PM 51.1 °F - 37.4 °F 60% 30.26 in 7.0 mi SSE 3.5 mph - N/A   Clear
10:15 PM 50.7 °F - 37.0 °F 59% 30.26 in 10.0 mi South 3.5 mph - N/A   Clear
10:35 PM 50.7 °F - 37.0 °F 59% 30.26 in 10.0 mi Calm Calm - N/A   Clear
10:55 PM 49.3 °F - 37.0 °F 63% 30.26 in 10.0 mi Calm Calm - N/A   Clear
11:35 PM 48.0 °F - 37.4 °F 67% 30.25 in 10.0 mi Calm Calm - N/A   Clear
11:55 PM 46.9 °F - 36.7 °F 68% 30.24 in 10.0 mi Calm Calm - N/A   Clear